#timestamp,LO_Frequency,Hit 
1504544415.5,286046999.8,N
1504544435.3,286047005.9,N
1504544455.1,286047002.5,N
1504544475.8,286047002.1,N
1504544495.7,286046998.1,N
1504544515.5,286047002.6,N
1504544535.3,286047003.0,N
1504544555.2,286047004.1,N
1504544575.0,286047005.0,N
1504544575.9,286047005.0,N
1504544595.7,286047007.5,N
1504544615.6,286047004.9,N
1504544635.4,286047006.8,N
1504544655.2,286047007.3,N
1504544675.1,286047006.2,N
1504544676.0,286047006.2,N
1504544695.8,286047005.4,N
1504544715.6,286047009.1,N
1504544735.5,286047010.7,P
1504544755.3,286047006.5,N
1504544775.1,286047007.5,N
1504544795.9,286047001.5,N
1504544815.7,286047001.2,N
1504544835.5,286047003.8,N
1504544855.4,286047004.4,N
1504544875.2,286047000.9,N
1504544895.0,286047003.3,N
1504544895.9,286047003.3,N
1504544915.8,286047000.1,N
1504544935.6,286047001.2,N
1504544955.4,286046999.9,N
1504544975.2,286046998.6,N
1504544995.1,286047000.0,N
1504544996.0,286047000.0,N
1504545015.8,286047001.1,N
1504545035.6,286047005.5,N
1504545055.5,286047007.4,N
1504545075.3,286047008.0,N
1504545095.1,286047010.5,P
1504545115.9,286047008.9,N
1504545135.7,286047005.4,N
1504545155.5,286047004.6,N
1504545175.4,286047008.9,P
1504545195.2,286047004.2,P
1504545215.0,286047001.6,N
1504545215.9,286047001.6,N
1504545235.8,286047004.3,N
1504545255.6,286047003.2,N
1504545275.4,286047003.7,N
1504545295.3,286046999.7,N
1504545315.1,286047000.8,N
1504545316.0,286047000.8,N
1504545335.8,286046996.7,N
1504545355.7,286046996.6,N
1504545375.5,286046998.8,N
1504545395.3,286047002.4,N
1504545415.2,286047002.8,N
1504545435.9,286047001.5,N
1504545455.7,286047001.9,N
1504545475.5,286047001.8,N
1504545495.4,286047003.9,N
1504545515.2,286047005.5,N
1504545535.0,286047007.6,N
1504545535.9,286047007.6,N
1504545555.8,286047005.5,N
1504545575.6,286047003.5,N
1504545595.4,286047002.0,N
1504545615.3,286047002.2,N
1504545635.1,286047001.9,N
1504545636.0,286047001.9,N
1504545655.8,286047002.9,N
1504545675.7,286047007.6,N
1504545695.5,286047008.7,P
1504545715.3,286047005.1,N
1504545735.2,286047004.1,N
1504545755.9,286047002.9,N
1504545775.7,286047001.6,N
1504545795.6,286047003.9,N
1504545815.4,286047003.0,N
1504545835.2,286047004.9,N
1504545855.1,286047006.2,P
1504545856.0,286047006.2,P
1504545875.8,286047002.1,N
1504545895.6,286047000.9,N
1504545915.5,286046999.9,N
1504545935.3,286047002.1,N
1504545955.1,286047003.0,N
1504545975.9,286047004.1,N
1504545995.7,286047001.9,N
1504546015.5,286047002.1,N
1504546035.3,286047000.5,N
1504546055.2,286047001.1,N
1504546075.0,286047002.2,N
1504546075.9,286047002.2,N
1504546095.7,286047001.3,N
1504546115.6,286047002.8,N
1504546135.4,286047001.3,N
1504546155.2,286047000.4,N
1504546175.1,286047002.8,N
1504546176.0,286047002.8,N
1504546195.8,286047002.2,N
1504546215.6,286047005.9,P
1504546235.5,286047003.4,N
1504546255.3,286047002.4,N
1504546275.1,286047002.5,N
1504546295.9,286047001.5,N
1504546315.5,286047005.6,P
1504546335.3,286047000.4,N
1504546355.2,286047001.1,N
1504546375.9,286047000.2,N
1504546395.7,286047001.1,N
1504546415.6,286047000.1,N
1504546435.4,286047002.8,N
1504546455.2,286047004.4,N
1504546475.0,286047002.0,N
1504546476.0,286047002.0,N
1504546495.8,286047003.7,N
1504546515.6,286047002.1,N
1504546535.4,286047003.6,N
1504546555.3,286047004.0,N
1504546575.1,286047000.1,N
1504546595.8,286047003.0,N
1504546615.7,286047002.9,N
1504546635.5,286047001.3,N
1504546655.3,286047003.4,N
1504546675.2,286047002.5,N
1504546695.9,286047002.5,N
1504546715.7,286047000.5,N
1504546735.6,286047001.4,N
1504546755.4,286047006.0,P
1504546775.2,286046999.8,N
1504546795.1,286047000.4,N
1504546796.0,286047000.4,N
1504546815.8,286047002.6,N
1504546835.6,286047000.1,N
1504546855.5,286047002.3,N
1504546875.3,286047001.7,N
1504546895.1,286047000.3,N
1504546915.9,286047000.2,N
1504546935.7,286047002.9,N
1504546955.5,286047004.2,N
1504546975.4,286047002.1,N
1504546995.2,286047002.3,N
1504547015.0,286047001.6,N
1504547015.9,286047001.6,N
1504547035.7,286047001.5,N
1504547055.6,286047003.0,N
1504547075.4,286047005.0,P
1504547095.3,286047004.1,N
1504547115.1,286047003.8,N
1504547116.0,286047003.8,P
1504547135.8,286046996.6,P
1504547155.7,286046999.5,N
1504547175.5,286046996.8,N
1504547195.3,286046999.6,N
1504547215.2,286046995.3,N
1504547235.9,286046996.8,N
1504547255.7,286047001.1,N
1504547275.5,286046998.1,N
1504547295.4,286046998.7,N
1504547315.2,286046998.5,N
1504547335.0,286046999.8,N
1504547335.9,286046999.8,N
1504547355.8,286047002.5,N
1504547375.6,286047001.5,N
1504547395.4,286047001.5,N
1504547415.3,286047003.9,N
1504547435.1,286046999.9,N
1504547436.0,286046999.9,N
1504547455.8,286047001.8,N
1504547475.7,286047004.3,N
1504547495.5,286047006.0,N
1504547515.3,286047003.6,N
1504547535.2,286047004.1,N
1504547555.9,286047003.8,N
1504547575.7,286047003.6,N
1504547595.5,286047003.2,N
1504547615.4,286047001.5,N
1504547635.2,286047004.3,N
1504547655.0,286047004.3,N
1504547655.9,286047004.3,N
1504547675.8,286047002.1,N
1504547695.6,286047004.1,N
1504547715.4,286047003.1,N
1504547735.3,286047003.5,N
1504547755.1,286047005.6,N
1504547756.0,286047005.6,N
1504547775.8,286047004.8,N
1504547795.7,286047004.7,N
1504547815.5,286047007.6,P
1504547835.3,286047001.3,N
1504547855.2,286047005.9,N
1504547875.9,286047004.4,N
1504547895.7,286047003.0,N
1504547915.6,286047005.5,N
1504547935.4,286047003.3,N
1504547955.2,286047004.1,N
1504547975.1,286047005.3,N
1504547976.0,286047005.3,P
1504547995.8,286047000.9,N
